Atmospheric History
12/06/2017 18:35  to  12/7/2017 18:35
Change End Date:
To complete the export process:
1) Select all of the data below
2) Copy the data to the clipboard
3) Open a word processor such as Notepad
4) Paste the data into the word processor
5) Save the file

Date/Time (MST), AirTemp, RH, Dewpoint ,AvgWindSpeed, GustWindSpeed, WindDirection, PrecipType, PrecipIntensity, PrecipAccumulation, PrecipRate
12/07/2017 18:34, 38, 44, 19 ,15, 21, N, None, None, ,  
12/07/2017 18:24, 38, 45, 19 ,15, 22, N, None, None, ,  
12/07/2017 18:20, 38, 45, 19 ,16, 22, N, None, None, ,  
12/07/2017 18:14, 38, 45, 19 ,16, 22, N, None, None, ,  
12/07/2017 18:06, 38, 45, 19 ,17, 25, N, None, None, ,  
12/07/2017 18:04, 38, 45, 19 ,19, 25, N, None, None, ,  
12/07/2017 17:54, 38, 45, 19 ,21, 27, N, None, None, ,  
12/07/2017 17:51, 38, 45, 19 ,19, 24, N, None, None, ,  
12/07/2017 17:44, 39, 44, 19 ,19, 24, N, None, None, ,  
12/07/2017 17:35, 39, 43, 19 ,15, 21, N, None, None, ,  
12/07/2017 17:34, 39, 43, 19 ,17, 21, N, None, None, ,  
12/07/2017 17:24, 40, 42, 18 ,17, 21, N, None, None, ,  
12/07/2017 17:20, 40, 41, 18 ,14, 21, N, None, None, ,  
12/07/2017 17:14, 40, 41, 18 ,14, 18, N, None, None, ,  
12/07/2017 17:05, 40, 40, 18 ,12, 21, N, None, None, ,  
12/07/2017 17:04, 40, 40, 18 ,14, 21, N, None, None, ,  
12/07/2017 16:54, 40, 42, 19 ,14, 18, N, None, None, ,  
12/07/2017 16:50, 40, 41, 19 ,13, 18, N, None, None, ,  
12/07/2017 16:43, 40, 42, 19 ,12, 19, N, None, None, ,  
12/07/2017 16:35, 41, 41, 19 ,12, 15, N, None, None, ,  
12/07/2017 16:33, 41, 42, 19 ,12, 15, N, None, None, ,  
12/07/2017 16:23, 41, 41, 19 ,12, 17, N, None, None, ,  
12/07/2017 16:20, 41, 41, 19 ,11, 17, N, None, None, ,  
12/07/2017 16:13, 42, 40, 19 ,12, 18, N, None, None, ,  
12/07/2017 16:05, 42, 39, 19 ,14, 20, N, None, None, ,  
12/07/2017 16:03, 42, 39, 19 ,14, 21, N, None, None, ,  
12/07/2017 15:53, 43, 38, 19 ,16, 21, N, None, None, ,  
12/07/2017 15:50, 43, 37, 19 ,16, 21, N, None, None, ,  
12/07/2017 15:43, 44, 37, 19 ,15, 21, N, None, None, ,  
12/07/2017 15:36, 44, 36, 19 ,15, 22, N, None, None, ,  
12/07/2017 15:33, 44, 36, 19 ,16, 24, N, None, None, ,  
12/07/2017 15:23, 45, 36, 19 ,16, 21, N, None, None, ,  
12/07/2017 15:21, 45, 35, 19 ,17, 21, N, None, None, ,  
12/07/2017 15:13, 45, 36, 19 ,14, 21, N, None, None, ,  
12/07/2017 15:06, 45, 36, 19 ,15, 24, N, None, None, ,  
12/07/2017 15:03, 45, 36, 19 ,14, 24, N, None, None, ,  
12/07/2017 14:53, 45, 36, 19 ,15, 21, N, None, None, ,  
12/07/2017 14:51, 45, 36, 19 ,13, 21, N, None, None, ,  
12/07/2017 14:43, 45, 36, 19 ,17, 26, N, None, None, ,  
12/07/2017 14:36, 44, 36, 19 ,17, 24, N, None, None, ,  
12/07/2017 14:33, 45, 36, 19 ,20, 24, N, None, None, ,  
12/07/2017 14:23, 45, 36, 19 ,19, 24, N, None, None, ,  
12/07/2017 14:21, 45, 36, 19 ,18, 27, N, None, None, ,  
12/07/2017 14:13, 45, 35, 19 ,21, 27, N, None, None, ,  
12/07/2017 14:06, 45, 35, 19 ,19, 26, N, None, None, ,  
12/07/2017 14:02, 45, 36, 20 ,17, 27, N, None, None, ,  
12/07/2017 13:52, 44, 36, 19 ,20, 29, N, None, None, ,  
12/07/2017 13:51, 44, 36, 19 ,21, 29, N, None, None, ,  
12/07/2017 13:42, 44, 37, 20 ,14, 23, N, None, None, ,  
12/07/2017 13:36, 44, 36, 20 ,15, 21, N, None, None, ,  
12/07/2017 13:32, 45, 36, 20 ,16, 21, N, None, None, ,  
12/07/2017 13:22, 44, 38, 20 ,17, 24, N, None, None, ,  
12/07/2017 13:21, 44, 37, 20 ,15, 24, N, None, None, ,  
12/07/2017 13:12, 43, 37, 19 ,21, 27, N, None, None, ,  
12/07/2017 13:06, 43, 37, 19 ,20, 27, N, None, None, ,  
12/07/2017 13:02, 43, 38, 19 ,16, 23, N, None, None, ,  
12/07/2017 12:52, 43, 38, 19 ,17, 22, N, None, None, ,  
12/07/2017 12:51, 43, 38, 19 ,16, 23, N, None, None, ,  
12/07/2017 12:42, 43, 37, 19 ,21, 23, N, None, None, ,  
12/07/2017 12:36, 43, 38, 19 ,16, 22, N, None, None, ,  
12/07/2017 12:32, 43, 37, 19 ,19, 22, N, None, None, ,  
12/07/2017 12:22, 43, 38, 19 ,14, 21, N, None, None, ,  
12/07/2017 12:20, 43, 37, 19 ,16, 21, N, None, None, ,  
12/07/2017 12:12, 43, 39, 20 ,13, 19, N, None, None, ,  
12/07/2017 12:06, 42, 39, 19 ,14, 20, N, None, None, ,  
12/07/2017 12:02, 42, 39, 19 ,14, 21, N, None, None, ,  
12/07/2017 11:52, 42, 39, 19 ,16, 22, N, None, None, ,  
12/07/2017 11:50, 42, 39, 19 ,15, 22, N, None, None, ,  
12/07/2017 11:42, 42, 39, 19 ,14, 24, N, None, None, ,  
12/07/2017 11:36, 41, 40, 19 ,20, 24, N, None, None, ,  
12/07/2017 11:32, 41, 39, 19 ,17, 21, N, None, None, ,  
12/07/2017 11:21, 41, 40, 19 ,12, 18, N, None, None, ,  
12/07/2017 11:21, 41, 41, 19 ,12, 21, N, None, None, ,  
12/07/2017 11:11, 41, 40, 19 ,17, 23, N, None, None, ,  
12/07/2017 11:06, 41, 40, 19 ,17, 24, N, None, None, ,  
12/07/2017 11:01, 40, 40, 18 ,17, 24, N, None, None, ,  
12/07/2017 10:51, 40, 41, 19 ,17, 22, N, None, None, ,  
12/07/2017 10:51, 40, 41, 19 ,17, 22, N, None, None, ,  
12/07/2017 10:41, 40, 41, 18 ,17, 24, N, None, None, ,  
12/07/2017 10:36, 40, 41, 18 ,20, 24, N, None, None, ,  
12/07/2017 10:31, 39, 41, 18 ,19, 22, N, None, None, ,  
12/07/2017 10:21, 38, 43, 18 ,15, 19, N, None, None, ,  
12/07/2017 10:20, 38, 43, 18 ,15, 19, N, None, None, ,  
12/07/2017 10:11, 38, 44, 18 ,14, 18, N, None, None, ,  
12/07/2017 10:06, 38, 45, 18 ,12, 20, N, None, None, ,  
12/07/2017 10:01, 38, 44, 18 ,14, 20, N, None, None, ,  
12/07/2017 09:51, 37, 46, 18 ,16, 19, N, None, None, ,  
12/07/2017 09:50, 37, 46, 18 ,14, 19, N, None, None, ,  
12/07/2017 09:41, 37, 46, 18 ,15, 20, N, None, None, ,  
12/07/2017 09:35, 36, 47, 18 ,13, 17, N, None, None, ,  
12/07/2017 09:31, 36, 49, 18 ,13, 17, N, None, None, ,  
12/07/2017 09:21, 35, 49, 18 ,13, 17, N, None, None, ,  
12/07/2017 09:20, 35, 49, 18 ,14, 17, N, None, None, ,  
12/07/2017 09:11, 35, 49, 18 ,14, 17, N, None, None, ,  
12/07/2017 09:05, 34, 50, 18 ,13, 17, N, None, None, ,  
12/07/2017 09:01, 34, 50, 18 ,14, 21, N, None, None, ,  
12/07/2017 08:51, 34, 51, 18 ,16, 18, N, None, None, ,  
12/07/2017 08:50, 34, 51, 18 ,15, 18, N, None, None, ,  
12/07/2017 08:40, 34, 50, 17 ,17, 21, N, None, None, ,  
12/07/2017 08:35, 34, 51, 17 ,14, 20, N, None, None, ,  
12/07/2017 08:30, 34, 50, 17 ,15, 22, N, None, None, ,  
12/07/2017 08:20, 34, 50, 17 ,17, 23, N, None, None, ,  
12/07/2017 08:20, 34, 50, 17 ,17, 23, N, None, None, ,  
12/07/2017 08:10, 33, 50, 17 ,17, 22, N, None, None, ,  
12/07/2017 08:05, 33, 50, 17 ,15, 21, N, None, None, ,  
12/07/2017 08:00, 34, 50, 17 ,16, 21, N, None, None, ,  
12/07/2017 07:50, 33, 51, 17 ,17, 22, N, None, None, ,  
12/07/2017 07:50, 33, 51, 17 ,17, 22, N, None, None, ,  
12/07/2017 07:40, 33, 51, 17 ,18, 24, N, None, None, ,  
12/07/2017 07:35, 33, 50, 17 ,20, 25, N, None, None, ,  
12/07/2017 07:30, 33, 51, 17 ,21, 25, N, None, None, ,  
12/07/2017 07:20, 33, 50, 17 ,19, 22, N, None, None, ,  
12/07/2017 07:20, 33, 50, 17 ,19, 22, N, None, None, ,  
12/07/2017 07:10, 33, 50, 17 ,18, 22, N, None, None, ,  
12/07/2017 07:05, 33, 50, 17 ,16, 19, N, None, None, ,  
12/07/2017 07:00, 33, 51, 17 ,14, 17, N, None, None, ,  
12/07/2017 06:51, 33, 52, 17 ,15, 17, N, None, None, ,  
12/07/2017 06:50, 32, 52, 17 ,14, 17, N, None, None, ,  
12/07/2017 06:40, 32, 52, 17 ,14, 20, N, None, None, ,  
12/07/2017 06:36, 32, 53, 17 ,16, 20, N, None, None, ,  
12/07/2017 06:30, 31, 54, 17 ,12, 15, N, None, None, ,  
12/07/2017 06:21, 30, 57, 17 ,7, 11, N, None, None, ,  
12/07/2017 06:20, 30, 57, 17 ,7, 9, N, None, None, ,  
12/07/2017 06:10, 28, 59, 16 ,7, 9, N, None, None, ,  
12/07/2017 06:06, 29, 58, 16 ,7, 9, N, None, None, ,  
12/07/2017 06:00, 28, 58, 15 ,7, 9, N, None, None, ,  
12/07/2017 05:51, 29, 58, 16 ,4, 6, N, None, None, ,  
12/07/2017 05:50, 29, 58, 16 ,5, 6, N, None, None, ,  
12/07/2017 05:40, 29, 58, 16 ,6, 10, N, None, None, ,  
12/07/2017 05:35, 29, 58, 16 ,7, 11, N, None, None, ,  
12/07/2017 05:30, 29, 57, 16 ,8, 12, N, None, None, ,  
12/07/2017 05:21, 30, 56, 16 ,10, 15, N, None, None, ,  
12/07/2017 05:19, 30, 56, 16 ,11, 15, N, None, None, ,  
12/07/2017 05:09, 29, 58, 16 ,10, 12, N, None, None, ,  
12/07/2017 05:06, 29, 58, 16 ,11, 12, N, None, None, ,  
12/07/2017 04:59, 29, 58, 16 ,10, 13, N, None, None, ,  
12/07/2017 04:51, 29, 57, 16 ,11, 14, N, None, None, ,  
12/07/2017 04:49, 29, 57, 16 ,11, 14, N, None, None, ,  
12/07/2017 04:39, 29, 57, 16 ,11, 19, N, None, None, ,  
12/07/2017 04:36, 30, 56, 16 ,12, 19, N, None, None, ,  
12/07/2017 04:29, 30, 56, 16 ,11, 17, N, None, None, ,  
12/07/2017 04:21, 30, 56, 16 ,13, 17, N, None, None, ,  
12/07/2017 04:19, 30, 56, 16 ,12, 16, N, None, None, ,  
12/07/2017 04:09, 30, 55, 16 ,14, 19, N, None, None, ,  
12/07/2017 04:06, 30, 55, 16 ,16, 19, N, None, None, ,  
12/07/2017 03:59, 30, 55, 16 ,14, 20, N, None, None, ,  
12/07/2017 03:51, 31, 54, 16 ,16, 21, N, None, None, ,  
12/07/2017 03:49, 31, 54, 16 ,16, 21, N, None, None, ,  
12/07/2017 03:39, 31, 53, 16 ,17, 20, N, None, None, ,  
12/07/2017 03:36, 31, 53, 16 ,17, 20, N, None, None, ,  
12/07/2017 03:29, 31, 53, 16 ,16, 19, N, None, None, ,  
12/07/2017 03:21, 31, 54, 16 ,14, 17, N, None, None, ,  
12/07/2017 03:19, 31, 54, 16 ,13, 18, N, None, None, ,  
12/07/2017 03:09, 31, 53, 16 ,12, 16, N, None, None, ,  
12/07/2017 03:06, 31, 54, 16 ,12, 16, N, None, None, ,  
12/07/2017 02:59, 31, 54, 16 ,12, 16, N, None, None, ,  
12/07/2017 02:51, 30, 54, 16 ,11, 19, N, None, None, ,  
12/07/2017 02:49, 31, 54, 16 ,12, 19, N, None, None, ,  
12/07/2017 02:39, 31, 52, 16 ,15, 19, N, None, None, ,  
12/07/2017 02:36, 31, 53, 16 ,14, 19, N, None, None, ,  
12/07/2017 02:28, 31, 53, 16 ,15, 20, N, None, None, ,  
12/07/2017 02:21, 31, 52, 16 ,16, 21, N, None, None, ,  
12/07/2017 02:18, 31, 52, 16 ,14, 21, N, None, None, ,  
12/07/2017 02:08, 31, 53, 16 ,16, 21, N, None, None, ,  
12/07/2017 02:06, 31, 53, 16 ,14, 22, N, None, None, ,  
12/07/2017 01:58, 31, 52, 16 ,17, 22, N, None, None, ,  
12/07/2017 01:51, 30, 54, 16 ,16, 18, N, None, None, ,  
12/07/2017 01:48, 30, 54, 16 ,13, 17, N, None, None, ,  
12/07/2017 01:38, 30, 56, 16 ,11, 14, N, None, None, ,  
12/07/2017 01:36, 30, 55, 16 ,11, 14, N, None, None, ,  
12/07/2017 01:28, 30, 56, 16 ,11, 15, N, None, None, ,  
12/07/2017 01:21, 30, 56, 16 ,10, 14, N, None, None, ,  
12/07/2017 01:18, 30, 56, 16 ,11, 14, N, None, None, ,  
12/07/2017 01:08, 30, 56, 16 ,11, 16, N, None, None, ,  
12/07/2017 01:06, 30, 57, 16 ,11, 16, N, None, None, ,  
12/07/2017 00:58, 30, 57, 16 ,11, 14, N, None, None, ,  
12/07/2017 00:51, 30, 56, 16 ,11, 17, N, None, None, ,  
12/07/2017 00:48, 30, 56, 16 ,14, 17, N, None, None, ,  
12/07/2017 00:38, 30, 56, 16 ,12, 17, N, None, None, ,  
12/07/2017 00:36, 30, 55, 16 ,12, 17, N, None, None, ,  
12/07/2017 00:28, 30, 57, 16 ,9, 12, N, None, None, ,  
12/07/2017 00:21, 30, 56, 16 ,9, 13, N, None, None, ,  
12/07/2017 00:18, 30, 56, 16 ,9, 15, N, None, None, ,  
12/07/2017 00:08, 30, 56, 16 ,10, 15, N, None, None, ,  
12/07/2017 00:06, 30, 56, 16 ,10, 16, N, None, None, ,  
12/06/2017 23:58, 30, 56, 16 ,12, 16, N, None, None, ,  
12/06/2017 23:51, 29, 56, 16 ,11, 13, N, None, None, ,  
12/06/2017 23:48, 29, 56, 16 ,10, 13, N, None, None, ,  
12/06/2017 23:37, 29, 55, 15 ,10, 14, N, None, None, ,  
12/06/2017 23:36, 29, 55, 15 ,11, 14, N, None, None, ,  
12/06/2017 23:27, 29, 54, 15 ,12, 14, N, None, None, ,  
12/06/2017 23:21, 29, 54, 15 ,10, 12, N, None, None, ,  
12/06/2017 23:17, 29, 54, 15 ,9, 12, N, None, None, ,  
12/06/2017 23:07, 29, 55, 15 ,9, 11, N, None, None, ,  
12/06/2017 23:06, 29, 55, 14 ,8, 10, N, None, None, ,  
12/06/2017 22:57, 29, 54, 14 ,7, 10, N, None, None, ,  
12/06/2017 22:51, 29, 53, 14 ,7, 9, N, None, None, ,  
12/06/2017 22:47, 29, 54, 14 ,7, 10, N, None, None, ,  
12/06/2017 22:37, 29, 53, 14 ,6, 9, N, None, None, ,  
12/06/2017 22:36, 29, 53, 14 ,6, 9, N, None, None, ,  
12/06/2017 22:27, 29, 53, 14 ,7, 9, N, None, None, ,  
12/06/2017 22:21, 29, 52, 14 ,6, 8, N, None, None, ,  
12/06/2017 22:17, 29, 53, 14 ,6, 9, N, None, None, ,  
12/06/2017 22:07, 29, 50, 13 ,9, 11, N, None, None, ,  
12/06/2017 22:06, 29, 52, 13 ,9, 11, N, None, None, ,  
12/06/2017 21:57, 29, 52, 13 ,9, 11, N, None, None, ,  
12/06/2017 21:50, 29, 52, 13 ,9, 12, N, None, None, ,  
12/06/2017 21:47, 29, 52, 13 ,10, 13, N, None, None, ,  
12/06/2017 21:37, 29, 52, 13 ,10, 14, N, None, None, ,  
12/06/2017 21:35, 29, 52, 13 ,11, 14, N, None, None, ,  
12/06/2017 21:27, 29, 51, 13 ,12, 14, N, None, None, ,  
12/06/2017 21:21, 29, 52, 13 ,11, 13, N, None, None, ,  
12/06/2017 21:17, 29, 52, 13 ,10, 13, N, None, None, ,  
12/06/2017 21:07, 29, 52, 13 ,9, 13, N, None, None, ,  
12/06/2017 21:05, 29, 52, 13 ,9, 13, N, None, None, ,  
12/06/2017 20:57, 29, 52, 13 ,10, 13, N, None, None, ,  
12/06/2017 20:50, 29, 51, 13 ,10, 14, N, None, None, ,  
12/06/2017 20:47, 29, 50, 13 ,10, 14, N, None, None, ,  
12/06/2017 20:37, 29, 49, 12 ,10, 12, N, None, None, ,  
12/06/2017 20:35, 29, 49, 12 ,9, 14, N, None, None, ,  
12/06/2017 20:26, 28, 49, 12 ,9, 14, N, None, None, ,  
12/06/2017 20:20, 28, 49, 12 ,12, 14, N, None, None, ,  
12/06/2017 20:16, 28, 50, 12 ,11, 13, N, None, None, ,  
12/06/2017 20:06, 28, 51, 12 ,9, 12, N, None, None, ,  
12/06/2017 20:05, 28, 51, 12 ,10, 12, N, None, None, ,  
12/06/2017 19:56, 28, 52, 12 ,7, 11, N, None, None, ,  
12/06/2017 19:50, 27, 52, 12 ,7, 11, N, None, None, ,  
12/06/2017 19:46, 28, 51, 12 ,7, 9, N, None, None, ,  
12/06/2017 19:36, 28, 50, 12 ,7, 9, N, None, None, ,  
12/06/2017 19:35, 28, 50, 12 ,6, 8, N, None, None, ,  
12/06/2017 19:26, 28, 51, 12 ,6, 7, N, None, None, ,  
12/06/2017 19:20, 27, 52, 12 ,7, 9, N, None, None, ,  
12/06/2017 19:16, 27, 52, 12 ,6, 9, N, None, None, ,  
12/06/2017 19:06, 27, 52, 12 ,7, 8, N, None, None, ,  
12/06/2017 19:06, 27, 52, 12 ,7, 8, N, None, None, ,  
12/06/2017 18:56, 26, 54, 12 ,7, 8, N, None, None, ,  
12/06/2017 18:50, 27, 52, 12 ,6, 7, N, None, None, ,  
12/06/2017 18:46, 27, 53, 12 ,6, 7, N, None, None, ,  
12/06/2017 18:36, 26, 54, 11 ,4, 7, N, None, None, ,  
12/06/2017 18:35, 26, 53, 12 ,5, 7, N, None, None, ,  
Change End Date:

Copyright © 1998-2015 Vaisala, Inc.
All Rights Reserved
Send comments about the data to:
SCAN Web ® is a registered trademark of Vaisala, Inc.
SCAN Web Version 6.0